Location: U-46 Planetarium
(42.0300°N, 88.2740°W)
Time: 00:29:07
(UTC-05:00)

SMAP - Pass Details

Date: 16 December 2017
Orbit: 682 x 682 km, 98.1° (Epoch: 25 April)

Event Time Altitude Azimuth Distance (km) Brightness Sun altitude
Rises 16:56:34 0° 153° (SSE) 3,030 6.4 -6.3°
Reaches altitude 10° 16:58:49 10° 149° (SSE) 2,119 5.6 -6.7°
Maximum altitude 17:03:20 55° 73° (ENE) 825 3.2 -7.5°
Drops below altitude 10° 17:07:53 10° 356° (N) 2,134 5.4 -8.3°
Sets 17:10:10 0° 352° (N) 3,053 6.2 -8.6°
